Tracking 29892 objects as of 21-Nov-2024
HD Live streaming from Space Station
objects crossing your sky now

COSMOS 1791

Track COSMOS 1791 now!
10-day predictions
COSMOS 1791 is classified as:


NORAD ID: 17066
Int'l Code: 1986-086A
Perigee: 954.5 km
Apogee: 1,016.2 km
Inclination: 82.9 °
Period: 104.7 minutes
Semi major axis: 7356 km
RCS: 2.0797 m2 (large)
Launch date: November 13, 1986
Source: Commonwealth of Independent States (former USSR) (CIS)
Launch site: PLESETSK MISSILE AND SPACE COMPLEX (PKMTR)
Your satellite tracking list
Your tracking list is empty




NASA's NSSDC Master Catalog

Two Line Element Set (TLE):
1 17066U 86086A   24325.90763111  .00000106  00000-0  93119-4 0  9996
2 17066  82.9458 326.5884 0041885  43.1145   2.7508 13.75970188909355
Source of the keplerian elements: AFSPC